Hourly Weather Roundup
Issued by NWS Central Illinois

Home | Current Version | Previous Version | Text Only | Print | Product List | Glossary On
Versions: 1 2 3 4 5 6 7 8 9 10 11 12 13 14 15 16 17 18 19 20 21 22 23 24 25 26 27 28 29 30 31 32 33 34 35 36 37 38 39 40 41 42 43 44 45 46 47 48 49 50
000
NZUS43 KILX 280310
HWRILX

AREA WEATHER ROUNDUP
NATIONAL WEATHER SERVICE, LINCOLN IL
1000 PM CDT WED AUG 27 2014


CITY           SKY/WX    TMP DP  RH WIND       PRES   REMARKS
BLOOMINGTON    PTCLDY    69  65  87 E5        30.12R
CHAMPAIGN      CLEAR     72  67  84 NE7       30.10R
DECATUR        PTCLDY    73  70  90 CALM      30.11R
FLORA          MOCLDY    77  70  80 W7        30.09R
GALESBURG      CLOUDY    68  65  92 NE5       30.11S
JACKSONVILLE   MOCLDY    77  74  93 NE5       30.09R
LACON          MOCLDY    70  65  82 E5        30.09R
LAWRENCEVILLE  MOCLDY    77  73  87 NW6       30.07R
LITCHFIELD     MOCLDY    72  69  89 SE5       30.10S
$$


CITY           SKY/WX    TMP DP  RH WIND       PRES   REMARKS
LINCOLN        PTCLDY    73  70  90 CALM      30.06S
MACOMB         MOCLDY    73  70  91 NE6       30.10S
MATTOON        PTCLDY    74  71  91 N3        30.09R
MT CARMEL AP   MOCLDY    77  72  83 W3        30.07R
OLNEY-NOBLE AP MOCLDY    72  70  94 CALM      30.08S
PARIS          PTCLDY    73  70  89 NE3       30.10S
PEORIA         MOCLDY    75  66  73 CALM      30.10R
PONTIAC        MOCLDY    72  66  83 E3        30.11S
RANTOUL        CLEAR     72  65  77 NE6       30.11R
ROBINSON       PTCLDY    73  72  95 CALM      30.08R
SPRINGFIELD    PTCLDY    75  73  93 CALM      30.09S
TAYLORVILLE    PTCLDY    70  70 100 CALM      30.10R
$$

...REGIONAL REPORTS...


CITY           SKY/WX    TMP DP  RH WIND       PRES   REMARKS
CHICAGO O`HARE PTCLDY    69  59  70 NE7       30.13R
KANKAKEE       PTCLDY    66  62  86 NE5       30.12S
MOLINE         CLEAR     67  63  87 CALM      30.11R
MOUNT VERNON   CLOUDY    72  66  83 NW5       30.10F THUNDER
PITTSFIELD     MOCLDY    74  69  86 CALM      30.08S
QUINCY         MOCLDY    75  73  93 NE6       30.07R
ROCKFORD       MOCLDY    68  63  84 E7        30.15R
$$


CITY           SKY/WX    TMP DP  RH WIND       PRES   REMARKS
BURLINGTON     PTCLDY    73  69  87 NE6       30.09S
CEDAR RAPIDS   PTCLDY    66  63  90 E6        30.11R
DES MOINES     CLOUDY    73  68  84 E3        30.10R
KIRKSVILLE     MOCLDY    73  70  90 NE3       30.10R
OTTUMWA        MOCLDY    71  68  90 NE5       30.10S
ST LOUIS       LGT RAIN  75  71  87 E9        30.08R
$$


CITY           SKY/WX    TMP DP  RH WIND       PRES   REMARKS
TERRE HAUTE    PTCLDY    76  70  82 N6        30.08R
EVANSVILLE     MOCLDY    79  69  71 NW3       30.06S HX  81
INDIANAPOLIS   MOCLDY    75  65  70 NE10      30.07F
LAFAYETTE      PTCLDY    68  61  78 NE9       30.09S
MADISON        CLEAR     63  60  90 CALM      30.14R
MILWAUKEE      PTCLDY    64  55  72 E5        30.15R
$$





USA.gov is the U.S. government's official web portal to all federal, state and local government web resources and services.